Date String (YYYY-MM-DD hh:mm:ss) UTC,Instrument flags,absolute air pressure of the measurement (hPa),sample flow rate (lpm),inlet stack bypass flow (lpm),air temperature of the measurement (°C),ambient temperature measured by the external sensor (°C),aerosol sample conditioner tube jacket temperature (°C),OPC LED temperature (°C),internal box temperature (°C),relative humidity of the measurement (%),span deviation,mass concentration of particles derived from Lorenz-Mie calculation of OPC scattering (μg/m³),mass concentration of particles derived from Lorenz-Mie calculation of OPC scattering (μg/m³),mass concentration of particles derived from Lorenz-Mie calculation of OPC scattering (μg/m³)
DateTimeUTC,F1_M11,P_M11,Q1_M11,Q2_M11,T1_M11,T2_M11,T3_M11,T4_M11,T5_M11,U1_M11,ZSPAN_M11,X0_M11,X2_M11,X1_M11
2024-01-05 19:00:00,SystemResetWarning,0822.0,5.00,000.00,020.6,020.1,000.0,028.9,022.0,14.0,0000.0,0008.26,0003.88,0003.55
2024-01-05 19:01:00,SystemResetWarning,0822.0,5.00,000.00,020.6,020.1,000.0,028.9,022.0,14.0,0000.0,0008.31,0003.88,0003.56
2024-01-05 19:02:00,SystemResetWarning,0822.0,5.00,000.00,020.6,020.1,000.0,028.9,022.0,13.9,0000.0,0008.36,0003.92,0003.57
2024-01-05 19:03:00,SystemResetWarning,0822.0,5.00,000.00,020.6,020.1,000.0,028.9,022.0,13.9,0000.0,0008.07,0003.93,0003.57
2024-01-05 19:04:00,SystemResetWarning,0821.9,5.00,000.00,020.6,020.1,000.0,028.9,022.0,13.9,0000.0,0007.34,0003.92,0003.58
2024-01-05 19:05:00,SystemResetWarning,0822.0,5.00,000.00,020.7,020.1,000.0,028.9,022.0,13.8,0000.0,0007.38,0003.94,0003.59
2024-01-05 19:06:00,SystemResetWarning,0821.8,5.00,000.00,020.7,020.1,000.0,028.9,022.0,13.8,0000.0,0007.36,0003.94,0003.60
2024-01-05 19:07:00,SystemResetWarning,0821.8,5.00,000.00,020.7,020.2,000.0,028.9,022.1,13.8,0000.0,0007.32,0003.94,0003.61
2024-01-05 19:08:00,SystemResetWarning,0821.8,5.00,000.00,020.7,020.2,000.0,028.9,022.1,13.7,0000.0,0007.38,0003.95,0003.62
2024-01-05 19:09:00,SystemResetWarning,0821.8,4.99,000.00,020.7,020.2,000.0,028.9,022.1,13.7,0000.0,0007.48,0003.96,0003.63
2024-01-05 19:10:00,SystemResetWarning,0821.8,5.00,000.00,020.7,020.2,000.0,028.9,022.2,13.7,0000.0,0007.32,0003.98,0003.63
2024-01-05 19:11:00,SystemResetWarning,0821.8,5.00,000.00,020.7,020.2,000.0,029.0,022.2,13.7,0000.0,0006.22,0003.96,0003.64
2024-01-05 19:12:00,SystemResetWarning,0821.8,5.01,000.00,020.8,020.2,000.0,029.0,022.2,13.7,0000.0,0006.15,0003.98,0003.66
2024-01-05 19:13:00,SystemResetWarning,0821.8,5.00,000.00,020.8,020.2,000.0,029.0,022.2,13.7,0000.0,0006.10,0003.98,0003.67
2024-01-05 19:14:00,SystemResetWarning,0821.8,5.01,000.00,020.8,020.3,000.0,029.0,022.2,13.7,0000.0,0006.06,0004.00,0003.69
2024-01-05 19:15:00,SystemResetWarning,0821.8,5.00,000.00,020.8,020.3,000.0,029.0,022.2,13.7,0000.0,0006.17,0004.03,0003.70
2024-01-05 19:16:00,SystemResetWarning,0821.8,5.00,000.00,020.8,020.3,000.0,029.0,022.2,13.8,0000.0,0006.37,0004.04,0003.71
2024-01-05 19:17:00,SystemResetWarning,0821.8,5.00,000.00,020.8,020.3,000.0,029.0,022.2,13.8,0000.0,0006.37,0004.04,0003.72
2024-01-05 19:18:00,SystemResetWarning,0821.7,5.00,000.00,020.8,020.2,000.0,029.0,022.1,13.8,0000.0,0006.34,0004.03,0003.72
2024-01-05 19:19:00,SystemResetWarning,0821.7,5.00,000.00,020.8,020.2,000.0,029.0,022.1,13.9,0000.0,0006.57,0004.07,0003.73
2024-01-05 19:20:00,SystemResetWarning,0821.7,5.00,000.00,020.8,020.2,000.0,029.0,022.1,14.0,0000.0,0006.62,0004.10,0003.75
2024-01-05 19:21:00,SystemResetWarning,0821.7,5.00,000.00,020.8,020.2,000.0,029.1,022.1,14.1,0000.0,0006.57,0004.09,0003.77
2024-01-05 19:22:00,SystemResetWarning,0821.6,5.00,000.00,020.8,020.2,000.0,029.1,022.1,14.2,0000.0,0006.70,0004.11,0003.77
2024-01-05 19:23:00,SystemResetWarning,0821.6,5.00,000.00,020.8,020.2,000.0,029.1,022.2,14.3,0000.0,0006.75,0004.10,0003.77
2024-01-05 19:24:00,SystemResetWarning,0821.7,5.00,000.00,020.8,020.3,000.0,029.1,022.2,14.4,0000.0,0006.86,0004.11,0003.78
2024-01-05 19:25:00,SystemResetWarning,0821.6,5.00,000.00,020.8,020.3,000.0,029.1,022.2,14.5,0000.0,0006.84,0004.10,0003.78
2024-01-05 19:26:00,SystemResetWarning,0821.6,5.00,000.00,020.8,020.3,000.0,029.1,022.2,14.6,0000.0,0007.51,0004.10,0003.79
2024-01-05 19:27:00,SystemResetWarning,0821.6,5.00,000.00,020.8,020.3,000.0,029.1,022.3,14.6,0000.0,0007.59,0004.09,0003.79
2024-01-05 19:28:00,SystemResetWarning,0821.6,4.99,000.00,020.9,020.3,000.0,029.1,022.3,14.6,0000.0,0007.59,0004.09,0003.79
2024-01-05 19:29:00,SystemResetWarning,0821.5,5.00,000.00,020.9,020.4,000.0,029.1,022.3,14.6,0000.0,0007.66,0004.11,0003.79
2024-01-05 19:30:00,SystemResetWarning,0821.6,5.00,000.00,020.9,020.4,000.0,029.1,022.3,14.6,0000.0,0007.55,0004.08,0003.79
2024-01-05 19:31:00,SystemResetWarning,0821.7,5.00,000.00,020.9,020.4,000.0,029.1,022.4,14.7,0000.0,0007.42,0004.04,0003.79
2024-01-05 19:32:00,SystemResetWarning,0821.6,5.01,000.00,020.9,020.4,000.0,029.1,022.4,14.6,0000.0,0007.36,0004.03,0003.79
2024-01-05 19:33:00,SystemResetWarning,0821.5,5.00,000.00,021.0,020.4,000.0,029.2,022.4,14.5,0000.0,0007.42,0004.03,0003.79
2024-01-05 19:34:00,SystemResetWarning,0821.5,5.01,000.00,021.0,020.4,000.0,029.2,022.3,14.4,0000.0,0007.39,0004.02,0003.79
2024-01-05 19:35:00,SystemResetWarning,0821.7,4.99,000.00,021.0,020.4,000.0,029.2,022.3,14.4,0000.0,0007.99,0004.03,0003.79
2024-01-05 19:36:00,SystemResetWarning,0821.6,5.00,000.00,021.0,020.4,000.0,029.2,022.4,14.4,0000.0,0008.45,0004.04,0003.79
2024-01-05 19:37:00,SystemResetWarning,0821.5,5.00,000.00,021.0,020.5,000.0,029.2,022.4,14.3,0000.0,0008.16,0004.07,0003.78
2024-01-05 19:38:00,SystemResetWarning,0821.6,4.99,000.00,021.0,020.5,000.0,029.2,022.4,14.2,0000.0,0007.94,0004.07,0003.76
2024-01-05 19:39:00,SystemResetWarning,0822.0,4.99,000.00,021.0,020.5,000.0,029.2,022.4,14.1,0000.0,0007.89,0004.06,0003.76
2024-01-05 19:40:00,SystemResetWarning,0822.0,5.00,000.00,021.0,020.5,000.0,029.2,022.4,14.0,0000.0,0007.88,0004.05,0003.75
2024-01-05 19:41:00,SystemResetWarning,0822.0,5.00,000.00,021.0,020.5,000.0,029.3,022.4,13.9,0000.0,0008.35,0004.06,0003.75
2024-01-05 19:42:00,SystemResetWarning,0822.0,5.01,000.00,021.0,020.5,000.0,029.3,022.4,13.8,0000.0,0008.50,0004.06,0003.74
2024-01-05 19:43:00,SystemResetWarning,0822.0,5.01,000.00,021.1,020.5,000.0,029.3,022.4,13.7,0000.0,0008.54,0004.07,0003.73
2024-01-05 19:44:00,SystemResetWarning,0822.0,4.99,000.00,021.1,020.5,000.0,029.3,022.5,13.6,0000.0,0008.48,0004.07,0003.72
2024-01-05 19:45:00,SystemResetWarning,0821.9,4.99,000.00,021.1,020.6,000.0,029.3,022.4,13.6,0000.0,0008.52,0004.08,0003.71
2024-01-05 19:46:00,SystemResetWarning,0821.7,5.00,000.00,021.1,020.5,000.0,029.3,022.4,13.5,0000.0,0008.10,0004.08,0003.70
2024-01-05 19:47:00,SystemResetWarning,0821.5,5.01,000.00,021.1,020.5,000.0,029.3,022.3,13.5,0000.0,0007.51,0004.08,0003.69
2024-01-05 19:48:00,SystemResetWarning,0821.4,5.00,000.00,021.1,020.5,000.0,029.3,022.3,13.5,0000.0,0008.16,0004.06,0003.69
2024-01-05 19:49:00,SystemResetWarning,0821.5,5.00,000.00,021.1,020.5,000.0,029.3,022.3,13.5,0000.0,0008.79,0004.03,0003.68
2024-01-05 19:50:00,SystemResetWarning,0821.5,5.00,000.00,021.1,020.5,000.0,029.3,022.3,13.5,0000.0,0009.35,0004.03,0003.68
2024-01-05 19:51:00,SystemResetWarning,0821.4,5.00,000.00,021.1,020.5,000.0,029.3,022.3,13.5,0000.0,0009.30,0004.02,0003.68
2024-01-05 19:52:00,SystemResetWarning,0821.4,5.00,000.00,021.1,020.5,000.0,029.3,022.3,13.6,0000.0,0008.98,0003.99,0003.67
2024-01-05 19:53:00,SystemResetWarning,0821.3,5.00,000.00,021.1,020.4,000.0,029.3,022.3,13.7,0000.0,0008.71,0004.00,0003.65
2024-01-05 19:54:00,SystemResetWarning,0821.3,4.99,000.00,021.1,020.4,000.0,029.3,022.3,13.7,0000.0,0008.79,0004.01,0003.65
2024-01-05 19:55:00,SystemResetWarning,0821.3,5.00,000.00,021.1,020.5,000.0,029.3,022.3,13.8,0000.0,0009.00,0003.98,0003.64
2024-01-05 19:56:00,SystemResetWarning,0821.3,5.01,000.00,021.1,020.5,000.0,029.3,022.3,13.8,0000.0,0009.03,0003.97,0003.64
2024-01-05 19:57:00,SystemResetWarning,0821.3,5.01,000.00,021.1,020.5,000.0,029.3,022.3,13.9,0000.0,0009.07,0003.96,0003.64
2024-01-05 19:58:00,SystemResetWarning,0821.3,4.99,000.00,021.1,020.5,000.0,029.3,022.3,13.9,0000.0,0009.03,0003.95,0003.64
2024-01-05 19:59:00,SystemResetWarning,0821.3,5.00,000.00,021.1,020.5,000.0,029.3,022.4,14.0,0000.0,0008.88,0003.93,0003.63
